TimeCDT,TemperatureF,Dew PointF,Humidity,Sea Level PressureIn,VisibilityMPH,Wind Direction,Wind SpeedMPH,Gust SpeedMPH,PrecipitationIn,Events,Conditions,WindDirDegrees,DateUTC
12:54 AM,64.9,50.0,58,29.77,10.0,SSE,8.1,-,N/A,,Clear,160,2012-05-24 05:54:00
1:54 AM,64.0,51.1,63,29.77,10.0,South,8.1,-,N/A,,Clear,170,2012-05-24 06:54:00
2:54 AM,64.9,51.1,61,29.75,10.0,South,10.4,-,N/A,,Clear,170,2012-05-24 07:54:00
3:54 AM,64.9,51.1,61,29.73,10.0,South,12.7,-,N/A,,Clear,170,2012-05-24 08:54:00
4:54 AM,64.0,52.0,65,29.75,10.0,SSE,10.4,-,N/A,,Clear,160,2012-05-24 09:54:00
5:54 AM,63.0,52.0,67,29.78,10.0,South,9.2,-,N/A,,Clear,170,2012-05-24 10:54:00
6:54 AM,64.9,53.1,65,29.79,10.0,SSE,11.5,-,N/A,,Clear,160,2012-05-24 11:54:00
7:54 AM,70.0,54.0,57,29.78,10.0,SSE,13.8,-,N/A,,Clear,160,2012-05-24 12:54:00
8:54 AM,75.0,54.0,48,29.77,10.0,South,16.1,31.1,N/A,,Clear,170,2012-05-24 13:54:00
9:54 AM,79.0,53.1,40,29.75,10.0,South,23.0,34.5,N/A,,Clear,170,2012-05-24 14:54:00
10:54 AM,81.0,54.0,39,29.74,10.0,South,25.3,34.5,N/A,,Clear,170,2012-05-24 15:54:00
11:54 AM,84.0,57.9,41,29.73,10.0,South,20.7,34.5,N/A,,Clear,170,2012-05-24 16:54:00
12:54 PM,86.0,60.1,41,29.71,10.0,SSE,23.0,33.4,N/A,,Clear,160,2012-05-24 17:54:00
1:54 PM,87.1,61.0,41,29.70,10.0,South,23.0,-,N/A,,Clear,180,2012-05-24 18:54:00
2:54 PM,88.0,61.0,40,29.67,10.0,South,25.3,35.7,N/A,,Clear,170,2012-05-24 19:54:00
3:54 PM,89.1,61.0,39,29.63,10.0,South,28.8,35.7,N/A,,Partly Cloudy,170,2012-05-24 20:54:00
4:54 PM,88.0,60.1,39,29.62,10.0,South,25.3,35.7,N/A,,Clear,180,2012-05-24 21:54:00
5:54 PM,88.0,57.0,35,29.62,10.0,South,27.6,33.4,N/A,,Clear,170,2012-05-24 22:54:00
6:54 PM,86.0,57.9,38,29.62,10.0,South,19.6,31.1,N/A,,Clear,190,2012-05-24 23:54:00
7:54 PM,84.0,59.0,43,29.65,10.0,South,16.1,25.3,N/A,,Clear,190,2012-05-25 00:54:00
8:54 PM,82.9,57.9,42,29.68,10.0,South,13.8,-,N/A,,Clear,190,2012-05-25 01:54:00
9:54 PM,81.0,57.0,44,29.72,10.0,South,12.7,-,N/A,,Clear,190,2012-05-25 02:54:00
10:54 PM,81.0,57.9,45,29.73,10.0,South,15.0,-,N/A,,Clear,190,2012-05-25 03:54:00
11:54 PM,79.0,59.0,50,29.74,10.0,South,15.0,21.9,N/A,,Clear,190,2012-05-25 04:54:00